TimeEST,TemperatureF,Dew PointF,Humidity,Sea Level PressureIn,VisibilityMPH,Wind Direction,Wind SpeedMPH,Gust SpeedMPH,PrecipitationIn,Events,Conditions,WindDirDegrees,DateUTC
12:53 AM,28.9,19.9,69,30.23,10.0,East,6.9,-,N/A,,Clear,100,2013-02-10 05:53:00
1:53 AM,30.0,19.9,66,30.22,10.0,ESE,9.2,-,N/A,,Clear,110,2013-02-10 06:53:00
2:53 AM,30.9,19.0,61,30.21,10.0,SE,6.9,-,N/A,,Clear,130,2013-02-10 07:53:00
3:53 AM,32.0,19.0,59,30.19,10.0,ESE,8.1,-,N/A,,Clear,120,2013-02-10 08:53:00
4:53 AM,33.1,19.9,59,30.18,10.0,SE,8.1,-,N/A,,Partly Cloudy,130,2013-02-10 09:53:00
5:53 AM,34.0,19.9,56,30.17,10.0,SSE,5.8,-,N/A,,Mostly Cloudy,160,2013-02-10 10:53:00
6:53 AM,35.1,19.9,54,30.17,10.0,SSE,6.9,-,N/A,,Scattered Clouds,150,2013-02-10 11:53:00
8:53 AM,37.9,21.0,51,30.14,10.0,SSE,10.4,-,N/A,,Mostly Cloudy,160,2013-02-10 13:53:00
9:53 AM,41.0,24.1,51,30.13,10.0,South,13.8,-,N/A,,Overcast,170,2013-02-10 14:53:00
10:53 AM,42.1,24.1,49,30.12,10.0,South,9.2,-,N/A,,Overcast,170,2013-02-10 15:53:00
11:53 AM,46.0,25.0,44,30.07,10.0,SSE,15.0,-,N/A,,Overcast,160,2013-02-10 16:53:00
12:53 PM,48.0,26.1,42,30.02,10.0,SSE,12.7,-,N/A,,Overcast,160,2013-02-10 17:53:00
1:53 PM,51.1,28.0,41,29.96,10.0,SSE,10.4,-,N/A,,Scattered Clouds,150,2013-02-10 18:53:00
2:53 PM,52.0,27.0,38,29.96,10.0,South,15.0,19.6,N/A,,Scattered Clouds,170,2013-02-10 19:53:00
3:53 PM,51.1,28.0,41,29.94,10.0,SSE,9.2,-,N/A,,Partly Cloudy,150,2013-02-10 20:53:00
4:53 PM,51.1,28.0,41,29.91,10.0,SSE,13.8,-,N/A,,Overcast,150,2013-02-10 21:53:00
5:53 PM,48.9,35.1,59,29.83,10.0,SSE,18.4,29.9,0.00,,Overcast,160,2013-02-10 22:53:00
6:53 PM,48.0,39.9,74,29.88,10.0,South,16.1,-,0.01,,Overcast,170,2013-02-10 23:53:00
7:15 PM,48.2,39.2,71,29.85,10.0,SSE,13.8,23.0,N/A,,Overcast,160,2013-02-11 00:15:00
7:53 PM,48.0,39.9,74,29.85,10.0,South,18.4,28.8,N/A,,Overcast,170,2013-02-11 00:53:00
8:53 PM,48.0,41.0,77,29.83,10.0,South,16.1,29.9,N/A,,Overcast,180,2013-02-11 01:53:00
9:53 PM,48.0,42.1,80,29.83,10.0,South,17.3,24.2,N/A,,Overcast,180,2013-02-11 02:53:00
10:53 PM,46.9,43.0,86,29.81,10.0,South,15.0,23.0,N/A,,Overcast,180,2013-02-11 03:53:00
11:53 PM,46.9,43.0,86,29.80,8.0,SSW,13.8,-,N/A,,Overcast,200,2013-02-11 04:53:00